Wheeling, WV

8:56 AM EST on January 18, 2018 (GMT -0500)
Wheeling-Ohio County

Weather History for KHLG - May, 2013

Change the Weather History Date:

Friday, May 24, 2013

  Actual Average Record
Temperature  
Mean Temperature 43 °F 62 °F  
Max Temperature 49 °F 72 °F 91 °F (1944)
Min Temperature 36 °F 52 °F 30 °F (1935)
Degree Days  
Heating Degree Days 22 5  
Month to date heating degree days 115 165  
Since 1 July heating degree days 5401 5523  
Cooling Degree Days 0    
Month to date cooling degree days 49  
Year to date cooling degree days 69  
Moisture  
Dew Point 36 °F    
Average Humidity 76    
Maximum Humidity 96    
Minimum Humidity 56    
Precipitation  
Precipitation T in 0.14 in 1.07 in (1925)
Month to date precipitation 2.66 3.21  
Sea Level Pressure  
Sea Level Pressure 30.17 in    
Wind  
Wind Speed 11 mph (NW)    
Max Wind Speed 20 mph    
Max Gust Speed 26 mph    
Visibility 10 miles    
Events      
T = Trace of Precipitation, MM = Missing Value Source: NWS Daily Summary

Daily Weather History Graph

Daily Weather History Graph

Search for Another Location

Airport or City:

Trip Planner

Search our weather history database for the weather conditions in past years. The results will help you decide how hot, cold, wet, or windy it might be!

Date:

Astronomy

May. 24, 2013 Rise Set
Actual Time 5:59 AM EDT 8:39 PM EDT
Civil Twilight 5:27 AM EDT 9:11 PM EDT
Nautical Twilight 4:48 AM EDT 9:51 PM EDT
Astronomical Twilight 4:03 AM EDT 10:36 PM EDT
Moon 8:20 PM EDT (5/24) 5:30 AM EDT (5/24)
Length of Visible Light 15h 43m
Length of Day
14h 40m
Full, 100% of the Moon is Illuminated
May 24
Full
May 25
Full
May 31
Last Quarter
Jun 8
New
Jun 16
First Quarter

Hourly Weather History & Observations

Time (EDT) Temp. Windchill Dew Point Humidity Pressure Visibility Wind Dir Wind Speed Gust Speed Precip Events Conditions
12:50 AM 46.4 °F 41.5 °F 42.8 °F 87% 29.97 in 10.0 mi NW 10.4 mph 18.4 mph N/A   Overcast
12:53 AM 46.0 °F 41.0 °F 43.0 °F 89% 29.97 in 10.0 mi NW 10.4 mph 17.3 mph N/A   Overcast
1:53 AM 45.0 °F 38.2 °F 41.0 °F 86% 29.99 in 10.0 mi NW 15.0 mph 23.0 mph N/A   Overcast
2:53 AM 44.1 °F 38.1 °F 39.9 °F 85% 30.01 in 10.0 mi NW 11.5 mph 19.6 mph 0.00 in   Overcast
3:17 AM 42.8 °F 34.8 °F 39.2 °F 87% 30.00 in 10.0 mi NW 17.3 mph 21.9 mph 0.00 in   Overcast
3:53 AM 43.0 °F 36.4 °F 41.0 °F 93% 30.02 in 4.0 mi NW 12.7 mph - 0.00 in   Overcast
4:53 AM 43.0 °F 36.8 °F 41.0 °F 93% 30.04 in 7.0 mi NW 11.5 mph 17.3 mph N/A   Overcast
5:53 AM 43.0 °F 34.8 °F 39.9 °F 89% 30.06 in 7.0 mi NW 18.4 mph 23.0 mph N/A   Overcast
6:07 AM 42.8 °F 36.6 °F 39.2 °F 87% 30.07 in 8.0 mi NW 11.5 mph - N/A   Overcast
6:29 AM 42.8 °F 35.1 °F 39.2 °F 87% 30.08 in 10.0 mi NW 16.1 mph 21.9 mph N/A   Overcast
6:53 AM 42.1 °F 35.2 °F 39.0 °F 89% 30.11 in 10.0 mi NW 12.7 mph 21.9 mph N/A   Overcast
7:39 AM 42.8 °F 36.6 °F 39.2 °F 87% 30.11 in 10.0 mi NNW 11.5 mph 21.9 mph N/A   Overcast
7:53 AM 42.1 °F 35.2 °F 39.0 °F 89% 30.13 in 10.0 mi NW 12.7 mph 18.4 mph N/A   Overcast
8:53 AM 43.0 °F 36.0 °F 37.9 °F 82% 30.17 in 10.0 mi NNW 13.8 mph 19.6 mph N/A   Overcast
9:49 AM 44.6 °F 38.8 °F 37.4 °F 76% 30.17 in 10.0 mi NNW 11.5 mph - N/A   Overcast
9:53 AM 44.1 °F 39.0 °F 37.9 °F 79% 30.19 in 10.0 mi NNW 9.2 mph 18.4 mph N/A   Overcast
10:53 AM 46.0 °F 40.6 °F 36.0 °F 68% 30.20 in 10.0 mi NW 11.5 mph 18.4 mph N/A   Overcast
11:11 AM 46.4 °F 39.8 °F 33.8 °F 62% 30.19 in 10.0 mi NW 16.1 mph 21.9 mph N/A   Overcast
11:36 AM 46.4 °F 40.1 °F 33.8 °F 62% 30.20 in 10.0 mi NNW 15.0 mph 21.9 mph N/A   Overcast
11:53 AM 46.0 °F 39.6 °F 33.1 °F 61% 30.23 in 10.0 mi WNW 15.0 mph 25.3 mph N/A   Overcast
12:53 PM 46.9 °F - 33.1 °F 59% 30.24 in 10.0 mi WNW 15.0 mph 21.9 mph N/A   Overcast
1:53 PM 48.0 °F - 34.0 °F 58% 30.25 in 10.0 mi NW 10.4 mph 20.7 mph N/A   Overcast
2:53 PM 46.9 °F - 34.0 °F 61% 30.27 in 10.0 mi WNW 15.0 mph 20.7 mph N/A   Overcast
3:53 PM 46.9 °F - 34.0 °F 61% 30.28 in 10.0 mi WNW 13.8 mph 19.6 mph N/A   Overcast
4:53 PM 46.0 °F 40.2 °F 32.0 °F 58% 30.28 in 10.0 mi NW 12.7 mph - N/A   Overcast
5:53 PM 46.0 °F 39.9 °F 32.0 °F 58% 30.30 in 10.0 mi NW 13.8 mph - N/A   Overcast
6:53 PM 45.0 °F 39.3 °F 30.9 °F 58% 30.30 in 10.0 mi NNW 11.5 mph - N/A   Overcast
7:53 PM 44.1 °F 39.0 °F 30.9 °F 60% 30.31 in 10.0 mi NNW 9.2 mph - N/A   Overcast
8:53 PM 41.0 °F 35.8 °F 30.0 °F 65% 30.31 in 10.0 mi NNW 8.1 mph - N/A   Partly Cloudy
9:53 PM 39.9 °F 35.1 °F 30.0 °F 68% 30.32 in 10.0 mi NNW 6.9 mph - N/A   Clear
10:53 PM 37.9 °F 34.4 °F 30.0 °F 73% 30.32 in 10.0 mi NW 4.6 mph - N/A   Clear
11:53 PM 37.9 °F 34.4 °F 30.9 °F 76% 30.32 in 10.0 mi NNW 4.6 mph - N/A   Clear